TimeHST,TemperatureF,Dew PointF,Humidity,Sea Level PressureIn,VisibilityMPH,Wind Direction,Wind SpeedMPH,Gust SpeedMPH,PrecipitationIn,Events,Conditions,WindDirDegrees,DateUTC
12:53 AM,68.0,61.0,78,29.87,10.0,SW,3.5,-,N/A,,Overcast,230,2013-01-18 10:53:00
1:53 AM,68.0,61.0,78,29.86,10.0,SW,4.6,-,N/A,,Overcast,230,2013-01-18 11:53:00
2:53 AM,66.9,60.1,79,29.86,10.0,SW,4.6,-,N/A,,Overcast,230,2013-01-18 12:53:00
3:53 AM,64.9,59.0,81,29.85,10.0,SSW,5.8,-,N/A,,Partly Cloudy,210,2013-01-18 13:53:00
4:53 AM,64.0,59.0,84,29.86,10.0,SW,5.8,-,N/A,,Overcast,220,2013-01-18 14:53:00
5:53 AM,63.0,57.0,81,29.87,10.0,SW,5.8,-,N/A,,Scattered Clouds,230,2013-01-18 15:53:00
6:53 AM,62.1,55.9,80,29.88,10.0,SW,5.8,-,N/A,,Partly Cloudy,220,2013-01-18 16:53:00
7:53 AM,64.0,57.0,78,29.91,10.0,WSW,6.9,-,N/A,,Scattered Clouds,250,2013-01-18 17:53:00
8:53 AM,70.0,59.0,68,29.93,10.0,SW,4.6,-,N/A,,Scattered Clouds,230,2013-01-18 18:53:00
9:53 AM,75.0,63.0,66,29.94,10.0,NNE,8.1,-,N/A,,Scattered Clouds,30,2013-01-18 19:53:00
10:53 AM,75.9,63.0,64,29.93,10.0,North,11.5,-,N/A,,Scattered Clouds,10,2013-01-18 20:53:00
11:53 AM,77.0,63.0,62,29.90,10.0,North,12.7,-,N/A,,Scattered Clouds,10,2013-01-18 21:53:00
12:53 PM,75.9,64.9,69,29.87,10.0,North,11.5,-,N/A,,Scattered Clouds,10,2013-01-18 22:53:00
1:53 PM,78.1,64.0,62,29.84,10.0,NNE,13.8,-,N/A,,Scattered Clouds,20,2013-01-18 23:53:00
2:53 PM,77.0,63.0,62,29.83,10.0,North,10.4,-,N/A,,Scattered Clouds,10,2013-01-19 00:53:00
3:53 PM,75.0,60.1,60,29.83,10.0,North,12.7,-,N/A,,Mostly Cloudy,350,2013-01-19 01:53:00
4:53 PM,73.9,60.1,62,29.83,10.0,North,11.5,-,N/A,,Mostly Cloudy,350,2013-01-19 02:53:00
5:53 PM,73.0,60.1,64,29.85,10.0,North,10.4,-,N/A,,Overcast,350,2013-01-19 03:53:00
6:53 PM,73.0,60.1,64,29.87,10.0,NNW,9.2,-,N/A,,Overcast,340,2013-01-19 04:53:00
7:53 PM,72.0,60.1,66,29.89,10.0,NW,6.9,-,N/A,,Mostly Cloudy,320,2013-01-19 05:53:00
8:53 PM,71.1,60.1,68,29.91,10.0,WNW,4.6,-,N/A,,Mostly Cloudy,300,2013-01-19 06:53:00
9:53 PM,70.0,61.0,73,29.92,10.0,North,12.7,-,N/A,,Scattered Clouds,350,2013-01-19 07:53:00
10:53 PM,70.0,60.1,71,29.91,10.0,NNW,12.7,-,N/A,,Mostly Cloudy,330,2013-01-19 08:53:00
11:53 PM,66.9,59.0,76,29.91,10.0,SW,5.8,-,N/A,,Partly Cloudy,230,2013-01-19 09:53:00